+ View the NASA Portal
+ Center for Near-Earth Object Studies
IMPORTANT:
The SSD Announcement email list is now available. Major changes are coming in the near future, including possible hostname and/or URL changes. To be notified of such changes, subscribe to this email list.
Please visit
this page
for more details.
Don't show this message again
JPL Small-Body Database Browser
Search:
[
help
]
266548 (2008 FN132)
Classification:
Main-belt Asteroid
SPK-ID:
2266548
[
Ephemeris
|
Orbit Diagram
|
Orbital Elements
|
Mission Design
|
Physical Parameters
|
Discovery Circumstances
]
[ show orbit diagram ]
Orbital Elements at Epoch 2458600.5 (2019-Apr-27.0) TDB
Reference:
JPL 19
(heliocentric ecliptic J2000)
Element
Value
Uncertainty (1-sigma)
Units
e
.1608972210559645
5.7795e-08
a
2.420261327295259
1.7341e-08
au
q
2.030848005504232
1.3519e-07
au
i
8.0021017818317
4.6639e-06
deg
node
160.1076135373258
3.5924e-05
deg
peri
223.9198187314376
3.7598e-05
deg
M
156.1882287471482
1.0732e-05
deg
t
p
2458003.825307460931
(2017-Sep-07.32530746)
4.0209e-05
TDB
period
1375.28219019506
3.77
1.4781e-05
4.047e-08
d
yr
n
.261764460098869
2.8133e-09
deg/d
Q
2.809674649086287
2.0131e-08
au
Orbit Determination Parameters
# obs. used (total)
396
data-arc span
7549 days (20.67 yr)
first obs. used
1998-09-26
last obs. used
2019-05-28
planetary ephem.
DE431
SB-pert. ephem.
SB431-N16
condition code
0
norm. resid. RMS
.55524
source
ORB
producer
Otto Matic
solution date
2019-Sep-24 04:36:39
Additional Information
Earth MOID
= 1.04099 au
Jupiter MOID
= 2.66103 au
T_jup
= 3.483
[ show covariance matrix ]
[
Ephemeris
|
Orbit Diagram
|
Orbital Elements
|
Mission Design
|
Physical Parameters
|
Discovery Circumstances
]
Physical Parameter Table
Parameter
Symbol
Value
Units
Sigma
Reference
Notes
absolute magnitude
H
16.5
n/a
MPO437227
266548 (2008 FN132)
Discovered 2008-Mar-28 by Spacewatch at Kitt Peak
Reference:
20110218/Numbers.arc
Last Updated:
2011-02-22
Alternate Designations
2008 FN132
= 1998 SB114
[
Ephemeris
|
Orbit Diagram
|
Orbital Elements
|
Mission Design
|
Physical Parameters
|
Discovery Circumstances
]
2019-Dec-12 19:33 UT
(server date/time)
Site Manager:
Ryan S. Park
Webmaster
:
Alan B. Chamberlin